Tracking 27107 objects as of 21-Mar-2023
HD Live streaming from Space Station
objects crossing your sky now

COSMOS 249 DEB *

Track COSMOS 249 DEB * now!
10-day predictions


NORAD ID: 3790
Int'l Code: 1968-091AX
Perigee: 571.5 km
Apogee: 1,691.9 km
Inclination: 63.0 °
Period: 107.8 minutes
Semi major axis: 7502 km
RCS: 0.0825 m2 (small)
Launch date: October 20, 1968
Source: Commonwealth of Independent States (former USSR) (CIS)
Launch site: TYURATAM MISSILE AND SPACE COMPLEX (TTMTR)

Note: This is SATELLITE DEBRIS
Your satellite tracking list
Your tracking list is empty




NASA's NSSDC Master Catalog

Two Line Element Set (TLE):
1  3790U 68091AX  23079.56741012  .00003377  00000-0  13094-2 0  9999
2  3790  62.9921 149.3414 0746641 206.3644 149.7511 13.35907300608518
Source of the keplerian elements: AFSPC